Volver al catálogo

STARLINK-36964

ActivoComunicacionesVLEO
NORAD 68184·PAYLOAD·🇺🇸 United States

Lanzado Mar 14, 2026 desde Vandenberg Space Force Base

Loading…

Próximos Pases (próximas 24 horas)

TLE

ActualizadoSource: CelesTrak SupGP

Época: Sep 14, 2026, 23:30 UTC

1 68184C 26050T   26257.97965278  .00037211  00000+0  10995-2 0  2571
2 68184  53.1564 103.6214 0001285  83.5365 117.0055 15.34368128    17

Sigue STARLINK-36964 en tiempo real con AllMySat

Download on the App Store